Weather History for KVLL - November, 2012

Change the Weather History Date:

Sunday, November 18, 2012

  Actual Average (KDET) Record (KDET)
Temperature  
Mean Temperature 46 °F -  
Max Temperature 55 °F 49 °F 69 °F (1975)
Min Temperature 37 °F 35 °F 12 °F (1959)
Degree Days  
Heating Degree Days 18    
Moisture  
Dew Point 38 °F    
Average Humidity 80    
Maximum Humidity 95    
Minimum Humidity 42    
Precipitation  
Precipitation 0.00 in - - ()
Sea Level Pressure  
Sea Level Pressure 30.52 in    
Wind  
Wind Speed 3 mph (East)    
Max Wind Speed 9 mph    
Max Gust Speed -    
Visibility 5 miles    
Events Fog    
Averages and records for this station are not official NWS values.
T = Trace of Precipitation, MM = Missing Value Source: NWS Daily Summary

Daily Weather History Graph

Daily Weather History Graph

Search for Another Location

Airport or City:

Trip Planner

Search our weather history database for the weather conditions in past years. The results will help you decide how hot, cold, wet, or windy it might be!

Date:

Astronomy

Nov. 18, 2012 Rise Set
Actual Time 7:28 AM EST 5:07 PM EST
Civil Twilight 6:57 AM EST 5:37 PM EST
Nautical Twilight 6:23 AM EST 6:12 PM EST
Astronomical Twilight 5:49 AM EST 6:45 PM EST
Moon 11:53 AM EST (11/18) 10:27 PM EST (11/18)
Length of Visible Light 10h 40m
Length of Day
9h 39m
Waxing Crescent, 30% of the Moon is Illuminated
Nov 18
Waxing Crescent
Nov 20
First Quarter
Nov 28
Full
Dec 6
Last Quarter
Dec 13
New

Hourly Weather History & Observations

Time (EST) Temp. Windchill Dew Point Humidity Pressure Visibility Wind Dir Wind Speed Gust Speed Precip Events Conditions
12:15 AM 41.0 °F 39.0 °F 38.5 °F 91% 30.58 in 1.8 mi NE 3.5 mph - N/A   Overcast
12:35 AM 41.4 °F - 39.0 °F 91% 30.58 in 1.2 mi Calm Calm - N/A   Overcast
12:54 AM 41.5 °F - 39.4 °F 92% 30.58 in 0.2 mi Calm Calm - N/A Fog Fog
1:15 AM 41.9 °F - 40.1 °F 93% 30.57 in 0.2 mi Calm Calm - N/A Fog Fog
1:35 AM 41.9 °F 40.0 °F 40.1 °F 93% 30.56 in 0.2 mi NE 3.5 mph - N/A Fog Fog
1:54 AM 42.1 °F 40.2 °F 40.3 °F 93% 30.56 in 0.2 mi ENE 3.5 mph - N/A Fog Fog
2:15 AM 41.2 °F - 39.6 °F 94% 30.56 in 0.2 mi Calm Calm - N/A Fog Fog
2:35 AM 40.1 °F 36.9 °F 38.3 °F 93% 30.57 in 0.2 mi NE 4.6 mph - N/A Fog Fog
2:54 AM 40.1 °F 38.0 °F 38.5 °F 94% 30.57 in 0.2 mi NE 3.5 mph - N/A Fog Fog
3:15 AM 39.9 °F 37.8 °F 38.3 °F 94% 30.56 in 0.2 mi ENE 3.5 mph - N/A Fog Fog
3:34 AM 39.7 °F 37.6 °F 38.3 °F 95% 30.56 in 0.2 mi NE 3.5 mph - N/A Fog Fog
3:55 AM 39.4 °F 37.2 °F 37.9 °F 95% 30.55 in 0.2 mi ENE 3.5 mph - N/A Fog Fog
4:15 AM 38.7 °F 34.3 °F 37.4 °F 95% 30.55 in 0.2 mi ENE 5.8 mph - N/A Fog Fog
4:34 AM 38.7 °F 36.3 °F 37.4 °F 95% 30.55 in 0.2 mi ENE 3.5 mph - N/A Fog Fog
4:55 AM 39.2 °F 37.0 °F 37.8 °F 95% 30.55 in 0.2 mi East 3.5 mph - N/A Fog Fog
5:15 AM 40.1 °F - 38.7 °F 95% 30.55 in 0.2 mi Calm Calm - N/A Fog Fog
5:34 AM 40.6 °F - 39.2 °F 95% 30.56 in 0.2 mi Calm Calm - N/A Fog Fog
6:15 AM 41.9 °F - 40.5 °F 95% 30.56 in 0.2 mi Calm Calm - N/A Fog Fog
6:34 AM 41.9 °F - 40.5 °F 95% 30.55 in 0.2 mi Calm Calm - N/A Fog Fog
7:14 AM 42.4 °F 39.6 °F 41.0 °F 95% 30.56 in 0.2 mi NE 4.6 mph - N/A Fog Fog
7:35 AM 42.3 °F - 41.0 °F 95% 30.56 in 0.2 mi Calm Calm - N/A Fog Fog
7:55 AM 42.3 °F 39.4 °F 40.8 °F 95% 30.55 in 0.2 mi ENE 4.6 mph - N/A Fog Fog
8:14 AM 42.3 °F - 41.0 °F 95% 30.56 in 0.2 mi Calm Calm - N/A Fog Fog
8:35 AM 42.8 °F 41.1 °F 41.4 °F 95% 30.56 in 0.2 mi East 3.5 mph - N/A Fog Fog
8:55 AM 43.2 °F 41.5 °F 41.9 °F 95% 30.55 in 0.2 mi ENE 3.5 mph - N/A Fog Fog
9:14 AM 43.2 °F 41.5 °F 41.9 °F 95% 30.55 in 0.2 mi ENE 3.5 mph - N/A Fog Fog
9:35 AM 43.7 °F 41.1 °F 42.3 °F 95% 30.55 in 0.2 mi East 4.6 mph - N/A Fog Fog
9:54 AM 44.2 °F 41.8 °F 42.8 °F 95% 30.55 in 0.2 mi ENE 4.6 mph - N/A Fog Fog
10:14 AM 44.8 °F 42.4 °F 43.3 °F 95% 30.55 in 0.5 mi ENE 4.6 mph - N/A Fog Fog
10:35 AM 45.1 °F 42.0 °F 43.7 °F 95% 30.55 in 1.2 mi ENE 5.8 mph - N/A   Overcast
10:54 AM 45.5 °F 42.5 °F 44.1 °F 95% 30.55 in 2.0 mi ENE 5.8 mph - N/A   Overcast
11:15 AM 46.4 °F 45.2 °F 44.6 °F 93% 30.54 in 2.5 mi ENE 3.5 mph - N/A   Overcast
11:35 AM 48.2 °F - 46.4 °F 93% 30.54 in 4.0 mi ESE 3.5 mph - N/A   Overcast
11:54 AM 47.8 °F - 46.2 °F 94% 30.52 in 4.0 mi ENE 3.5 mph - N/A   Mostly Cloudy
12:15 PM 49.8 °F - 45.7 °F 86% 30.51 in 7.0 mi East 5.8 mph - N/A   Scattered Clouds
12:35 PM 52.2 °F - 43.5 °F 72% 30.50 in 10.0 mi East 6.9 mph - N/A   Scattered Clouds
12:54 PM 53.4 °F - 41.4 °F 64% 30.50 in 10.0 mi ESE 5.8 mph - N/A   Clear
1:15 PM 54.3 °F - 38.1 °F 54% 30.49 in 10.0 mi East 3.5 mph - N/A   Clear
1:35 PM 54.7 °F - 36.9 °F 51% 30.49 in 10.0 mi East 4.6 mph - N/A   Clear
1:54 PM 55.4 °F - 35.2 °F 47% 30.49 in 10.0 mi East 5.8 mph - N/A   Clear
2:15 PM 55.6 °F - 34.0 °F 44% 30.48 in 10.0 mi ESE 8.1 mph - N/A   Clear
2:34 PM 55.6 °F - 32.5 °F 42% 30.47 in 10.0 mi East 9.2 mph - N/A   Clear
3:15 PM 54.3 °F - 32.7 °F 44% 30.47 in 10.0 mi East 8.1 mph - N/A   Clear
3:34 PM 54.3 °F - 32.4 °F 43% 30.47 in 10.0 mi ESE 5.8 mph - N/A   Clear
3:55 PM 54.0 °F - 32.4 °F 44% 30.47 in 10.0 mi East 5.8 mph - N/A   Clear
4:15 PM 53.6 °F - 33.8 °F 47% 30.47 in 10.0 mi ESE 4.6 mph - N/A   Clear
4:35 PM 53.1 °F - 34.3 °F 49% 30.47 in 10.0 mi East 4.6 mph - N/A   Clear
4:54 PM 52.2 °F - 34.0 °F 50% 30.47 in 10.0 mi East 4.6 mph - N/A   Clear
5:15 PM 50.9 °F - 34.2 °F 53% 30.47 in 10.0 mi Calm Calm - N/A   Clear
5:35 PM 49.5 °F - 33.8 °F 55% 30.47 in 10.0 mi East 3.5 mph - N/A   Clear
5:54 PM 47.8 °F - 33.4 °F 57% 30.48 in 10.0 mi Calm Calm - N/A   Clear
6:15 PM 46.2 °F 45.0 °F 33.8 °F 62% 30.48 in 10.0 mi East 3.5 mph - N/A   Clear
6:34 PM 45.9 °F 42.9 °F 33.8 °F 63% 30.48 in 10.0 mi East 5.8 mph - N/A   Clear
6:55 PM 47.8 °F - 34.9 °F 61% 30.48 in 10.0 mi East 3.5 mph - N/A   Clear
7:15 PM 46.6 °F - 35.1 °F 64% 30.48 in 10.0 mi East 4.6 mph - N/A   Clear
7:34 PM 45.3 °F 44.0 °F 35.2 °F 68% 30.48 in 10.0 mi East 3.5 mph - N/A   Clear
7:55 PM 44.2 °F - 35.6 °F 72% 30.48 in 10.0 mi Calm Calm - N/A   Clear
8:14 PM 43.0 °F - 36.3 °F 77% 30.48 in 10.0 mi Calm Calm - N/A   Clear
8:35 PM 41.9 °F - 36.3 °F 81% 30.47 in 10.0 mi Calm Calm - N/A   Clear
8:54 PM 41.7 °F - 36.5 °F 82% 30.48 in 10.0 mi Calm Calm - N/A   Clear
9:15 PM 41.2 °F - 36.5 °F 83% 30.47 in 10.0 mi Calm Calm - N/A   Clear
9:35 PM 40.1 °F - 36.3 °F 86% 30.47 in 10.0 mi Calm Calm - N/A   Clear
9:54 PM 39.4 °F - 36.0 °F 88% 30.47 in 7.0 mi Calm Calm - N/A   Clear
10:15 PM 38.7 °F - 35.4 °F 88% 30.47 in 7.0 mi Calm Calm - N/A   Clear
10:34 PM 38.7 °F - 35.6 °F 89% 30.47 in 7.0 mi Calm Calm - N/A   Clear
10:55 PM 39.2 °F - 36.3 °F 89% 30.46 in 7.0 mi Calm Calm - N/A   Clear
11:15 PM 38.5 °F - 35.8 °F 90% 30.45 in 5.0 mi Calm Calm - N/A   Clear
11:34 PM 37.4 °F - 34.9 °F 91% 30.46 in 5.0 mi Calm Calm - N/A   Clear